Regional Weather Roundup
Issued by NWS

Home | Current Version | Previous Version | Graphics & Text | Print | Product List | Glossary On
Versions: 1 2 3 4 5 6 7 8 9 10 11 12 13 14 15 16 17 18 19 20 21 22 23 24 25 26 27 28 29 30 31 32 33 34 35 36 37 38 39 40 41 42 43 44 45 46 47 48 49 50
307
ASUS43 KIND 011759
RWRIN

WEATHER ROUNDUP FOR INDIANA
NATIONAL WEATHER SERVICE INDIANAPOLIS IN
200 PM EDT SUN MAY 01 2016

NOTE: "FAIR" INDICATES FEW OR NO CLOUDS BELOW 12,000 FEET WITH NO
SIGNIFICANT WEATHER AND/OR OBSTRUCTIONS TO VISIBILITY.

* - STATION DOES NOT REPORT WEATHER SUCH AS PRECIPITATION OR FOG.

+ - STATION NOT QUALITY CONTROLLED BY THE NATIONAL WEATHER SERVICE.
    USE DATA WITH CAUTION...ESPECIALLY DEWPOINT AND RELATIVE
    HUMIDITY OBSERVATIONS.

INZ001>003-010>013-019-020-011900-
NORTHWEST INDIANA

CITY           SKY/WX    TMP DP  RH WIND       PRES   REMARKS
GARY /AIRPORT/ CLOUDY    48  48 100 N12       29.99S FOG
RENSSELAER +   CLOUDY    54  52  94 NE5       29.97S

$$

LMZ046-743>745-011900-
SOUTHERN LAKE MICHIGAN

STATION/POSITION TIME  TEMP    WIND        PRES    WAVE
                       AIR SEA DIR/SP/G            HT
                 (UTC) (F)     (DEG/KT/KT) (MB)    (FT)
BURNS HARBOR     1715   45      20/ 13/ 14 1015.9F
MICHIGAN CITY    1700   44     350/ 14/ 15   N/A

$$

INZ004-005-014>016-021>024-011900-
NORTH CENTRAL INDIANA

CITY           SKY/WX    TMP DP  RH WIND       PRES   REMARKS
ELKHART        CLOUDY    54  54 100 MISG      29.97F
GOSHEN         CLOUDY    54  50  86 NE6       29.97R
6HR MIN TEMP:  49; 6HR MAX TEMP:  54;

SOUTH BEND     CLOUDY    54  49  83 E3        29.98S
6HR MIN TEMP:  48; 6HR MAX TEMP:  55;

WARSAW +       CLOUDY    54  52  94 NE5       29.96

$$

INZ006>009-017-018-025>027-011900-
NORTHEAST INDIANA

CITY           SKY/WX    TMP DP  RH WIND       PRES   REMARKS
ANGOLA *+      CLOUDY    52  43  71 NE6       29.97S
AUBURN +       CLOUDY    55  52  88 NE3       29.97S
FORT WAYNE     CLOUDY    59  54  83 CALM      29.96S
6HR MIN TEMP:  50; 6HR MAX TEMP:  59;


$$

INZ028-029-035-036-043>045-051>053-011900-
WEST CENTRAL INDIANA

CITY           SKY/WX    TMP DP  RH WIND       PRES   REMARKS
CRAWFORDSVL +  CLOUDY    67  60  76 CALM      29.94S
6HR MIN TEMP:  57; 6HR MAX TEMP:  67;

GREENCASTLE +  CLOUDY    70  59  68 CALM      29.94S
LAFAYETTE      CLOUDY    60  56  86 NW6       29.95S
6HR MIN TEMP:  53; 6HR MAX TEMP:  61;

TERRE HAUTE    PTSUNNY   71  57  61 N6        29.93F
6HR MIN TEMP:  63; 6HR MAX TEMP:  71;


$$

INZ030>032-037>040-046>048-054>057-064-065-011900-
CENTRAL INDIANA

CITY           SKY/WX    TMP DP  RH WIND       PRES   REMARKS
CP ATTERBURY + SUNNY     73  57  56 CALM      29.93S
COLUMBUS       MOSUNNY   73  59  60 SE5       29.93F
FRANKFORT +      N/A     68  52  56 CALM      29.96S
6HR MIN TEMP:  56; 6HR MAX TEMP:  68;

INDIANAPOLIS   PTSUNNY   71  55  56 W3        29.92S
6HR MIN TEMP:  61; 6HR MAX TEMP:  73;

-EAGLE CREEK   MOSUNNY   73  57  57 VRB3      29.93S
6HR MIN TEMP:  61; 6HR MAX TEMP:  73;

KOKOMO *+      CLOUDY    68  57  68 CALM      29.93S
6HR MIN TEMP:  54; 6HR MAX TEMP:  68;

SHELBYVILLE    MOSUNNY   75  57  53 SW8       29.92F
6HR MIN TEMP:  63; 6HR MAX TEMP:  75;

ZIONSVILLE +   PTSUNNY   71  58  63 SW10      29.94S
6HR MIN TEMP:  60; 6HR MAX TEMP:  71;


$$

INZ033-034-041-042-049-050-058-059-011900-
EAST CENTRAL INDIANA

CITY           SKY/WX    TMP DP  RH WIND       PRES   REMARKS
MUNCIE         SUNNY     72  54  53 SW6       29.93S
6HR MIN TEMP:  63; 6HR MAX TEMP:  73;


$$

INZ060-061-067>069-081>083-085>088-011900-
SOUTHWEST INDIANA

CITY           SKY/WX    TMP DP  RH WIND       PRES   REMARKS
EVANSVILLE     PTSUNNY   77  64  64 SW12      29.92F
6HR MIN TEMP:  58; 6HR MAX TEMP:  77;

HUNTINGBURG *+ CLOUDY    77  64  65 SW9       29.93S
6HR MIN TEMP:  59; 6HR MAX TEMP:  77;


$$

INZ062-063-066-070>080-084-089>092-011900-
SOUTH CENTRAL AND SOUTHEAST INDIANA

CITY           SKY/WX    TMP DP  RH WIND       PRES   REMARKS
BLOOMINGTON    PTSUNNY   75  56  51 CALM      29.92F
6HR MIN TEMP:  59; 6HR MAX TEMP:  75;

MADISON *+     PTSUNNY   77  59  53 S6        29.95S
SEYMOUR +      SUNNY     75  61  60 CALM      29.93F

$$





USA.gov is the U.S. government's official web portal to all federal, state and local government web resources and services.